Location: Boursonne
(49.2024°N, 3.0468°E)
Time: 22:35:46
(UTC+00:00)

Cosmos 1666 - Pass Details

Date: 03 March 2021
Orbit: 497 x 518 km, 82.5° (Epoch: 20 April)

Event Time Altitude Azimuth Distance (km) Brightness Sun altitude
Rises 18:28:54 0° 153° (SSE) 2,575 6.0 -9.7°
Reaches altitude 10° 18:31:23 10° 136° (SE) 1,699 4.9 -10.1°
Maximum altitude 18:34:09 20° 88° (E) 1,197 3.9 -10.6°
Drops below altitude 10° 18:36:57 10° 40° (NE) 1,715 5.0 -11.0°
Sets 18:39:28 0° 23° (NNE) 2,609 6.1 -11.4°
